View from above orbital plane
|
View from above satellite
|
Ground track
|
The orbit data is extracted from the following two-line orbital elements,
1 17590U 87027B 21059.62525621 -.00000243 00000-0 -97229-4 0 9996
2 17590 71.0034 181.9226 0003938 13.4402 346.6826 14.16794461755448
Epoch (UTC): | 28 February 2021 15:00:22 |
Eccentricity: | 0.0003938 |
inclination: | 71.0034° |
perigee height: | 833 km |
apogee height: | 839 km |
right ascension of ascending node: | 181.9226° |
argument of perigee: | 13.4402° |
revolutions per day: | 14.16794461 |
mean anomaly at epoch: | 346.6826° |
orbit number at epoch: | 75544 |
The dashed part of the orbit path shows where the satellite is in the earth's shadow,
|
|